GW3020 Weather Reports


time (UTC)temp
F
wind
direction
speed
knots
gust
knots
rain 1hr
in
rain 24hr
in
rain mn
in
humidity
%
barometer
mb
20260503010032 45 264 0.0 1.7 0.00 0.00 0.00 54 1013.4
20260503005529 45 210 0.0 3.5 0.00 0.00 0.00 56 1013.4
20260503005026 45 204 0.0 0.9 0.00 0.00 0.00 55 1013.5
20260503004522 46 212 0.0 0.9 0.00 0.00 0.00 55 1013.5
20260503004020 46 227 0.0 1.7 0.00 0.00 0.00 53 1013.4
20260503003511 46 192 0.9 0.9 0.00 0.00 0.00 54 1013.4
20260503003009 46 181 1.7 1.7 0.00 0.00 0.00 54 1013.3
20260503002506 46 242 0.0 1.7 0.00 0.00 0.00 53 1013.3
20260503002002 46 173 0.0 1.7 0.00 0.00 0.00 54 1013.2
20260503001458 47 243 0.0 0.9 0.00 0.00 0.00 52 1013.2
20260503000956 47 225 0.0 0.9 0.00 0.00 0.00 51 1013.2
20260503000453 47 263 0.0 1.7 0.00 0.00 0.00 51 1013.0
20260502235950 47 222 0.0 2.6 0.00 0.00 0.00 50 1013.2
20260502235447 48 217 0.0 1.7 0.00 0.00 0.00 50 1012.9
20260502234944 48 225 0.0 3.5 0.00 0.00 0.00 48 1013.0
20260502234440 48 283 2.6 5.2 0.00 0.00 0.00 48 1012.8
20260502233938 49 225 1.7 2.6 0.00 0.00 0.00 47 1012.8
20260502233433 50 268 0.9 1.7 0.00 0.00 0.00 46 1012.7
20260502232930 50 226 0.9 7.0 0.00 0.00 0.00 45 1012.7
20260502232427 49 232 0.0 2.6 0.00 0.00 0.00 46 1012.9
20260502231924 50 260 2.6 2.6 0.00 0.00 0.00 45 1012.9
20260502231421 50 227 0.0 2.6 0.00 0.00 0.00 46 1012.8
20260502230919 50 244 0.9 2.6 0.00 0.00 0.00 45 1012.8
20260502230416 50 242 1.7 6.1 0.00 0.00 0.00 45 1012.6
20260502225914 50 237 2.6 5.2 0.00 0.00 0.00 45 1012.7
20260502225404 50 261 1.7 6.1 0.00 0.00 0.00 45 1012.8
20260502224901 50 202 2.6 3.5 0.00 0.00 0.00 47 1012.6
20260502224356 50 267 1.7 2.6 0.00 0.00 0.00 46 1012.6
20260502223854 50 128 0.9 5.2 0.00 0.00 0.00 46 1012.6
20260502223347 50 227 0.9 2.6 0.00 0.00 0.00 46 1012.4
20260502222844 50 68 1.7 3.5 0.00 0.00 0.00 47 1012.3
20260502222342 50 189 1.7 2.6 0.00 0.00 0.00 46 1012.3
20260502221837 51 124 2.6 3.5 0.00 0.00 0.00 45 1012.7
20260502221334 51 175 1.7 2.6 0.00 0.00 0.00 44 1012.3
20260502220831 51 172 0.9 2.6 0.00 0.00 0.00 44 1012.2
20260502220321 51 215 0.0 0.9 0.00 0.00 0.00 43 1012.2
20260502215817 52 239 1.7 2.6 0.00 0.00 0.00 43 1011.9
20260502215314 52 239 0.9 2.6 0.00 0.00 0.00 42 1012.1
20260502214811 54 217 5.2 7.8 0.00 0.00 0.00 41 1012.0
20260502214303 53 351 2.6 3.5 0.00 0.00 0.00 42 1012.1
20260502213800 52 353 3.5 6.1 0.00 0.00 0.00 43 1012.1
20260502213257 54 281 3.5 8.7 0.00 0.00 0.00 42 1012.0
20260502212756 54 181 1.7 6.1 0.00 0.00 0.00 40 1011.7
20260502212254 55 196 0.0 9.6 0.00 0.00 0.00 40 1011.8
20260502211749 53 195 1.7 3.5 0.00 0.00 0.00 41 1011.8
20260502211246 52 236 0.9 1.7 0.00 0.00 0.00 41 1011.8
20260502210743 52 244 1.7 3.5 0.00 0.00 0.00 42 1011.7
20260502210240 52 274 1.7 3.5 0.00 0.00 0.00 43 1011.7
20260502205737 52 264 4.3 6.1 0.00 0.00 0.00 43 1011.8
20260502205233 53 5 0.9 2.6 0.00 0.00 0.00 43 1011.7
20260502204731 54 10 0.9 5.2 0.00 0.00 0.00 42 1011.6
20260502204228 53 231 0.9 2.6 0.00 0.00 0.00 42 1011.7
20260502203726 53 205 2.6 5.2 0.00 0.00 0.00 43 1011.8
20260502203218 53 198 0.0 2.6 0.00 0.00 0.00 42 1011.7
20260502202712 53 112 0.9 1.7 0.00 0.00 0.00 45 1011.7
20260502202210 53 200 1.7 2.6 0.00 0.00 0.00 44 1011.5
20260502201707 53 251 0.9 8.7 0.00 0.00 0.00 43 1011.7
20260502201158 53 257 0.9 2.6 0.00 0.00 0.00 42 1011.8
20260502200654 54 221 0.0 2.6 0.00 0.00 0.00 42 1011.8
20260502200151 54 5 5.2 13.0 0.00 0.00 0.00 40 1011.8
20260502195649 54 226 0.9 3.5 0.00 0.00 0.00 42 1011.5
20260502195145 54 209 0.9 3.5 0.00 0.00 0.00 41 1011.8
20260502194642 55 258 0.0 3.5 0.00 0.00 0.00 41 1011.6
20260502194138 56 2 0.9 3.5 0.00 0.00 0.00 41 1011.8
20260502193635 57 268 3.5 6.1 0.00 0.00 0.00 38 1011.8
20260502193132 55 224 0.9 2.6 0.00 0.00 0.00 40 1011.5
20260502192627 55 282 3.5 3.5 0.00 0.00 0.00 38 1011.6
20260502192125 54 331 0.9 7.0 0.00 0.00 0.00 40 1011.6
20260502191622 56 312 3.5 6.1 0.00 0.00 0.00 37 1011.6
20260502191120 55 156 0.9 2.6 0.00 0.00 0.00 38 1011.5
20260502190617 55 275 2.6 9.6 0.00 0.00 0.00 39 1011.5
20260502190114 55 290 2.6 7.0 0.00 0.00 0.00 40 1011.5
20260502185609 54 134 3.5 3.5 0.00 0.00 0.00 39 1011.3
20260502185106 55 264 0.9 6.1 0.00 0.00 0.00 37 1011.6
20260502184602 56 89 2.6 5.2 0.00 0.00 0.00 37 1011.5
20260502184058 57 104 2.6 7.8 0.00 0.00 0.00 35 1011.5
20260502183554 58 226 0.9 8.7 0.00 0.00 0.00 35 1011.5
20260502183050 59 249 1.7 2.6 0.00 0.00 0.00 37 1011.5
20260502182545 59 194 3.5 5.2 0.00 0.00 0.00 35 1011.5
20260502182041 57 240 0.9 2.6 0.00 0.00 0.00 36 1011.7
20260502181534 58 73 3.5 7.8 0.00 0.00 0.00 36 1011.7
20260502181032 59 269 0.9 2.6 0.00 0.00 0.00 37 1011.5
20260502180528 57 231 0.0 1.7 0.00 0.00 0.00 37 1011.8
20260502170448 54 133 0.9 1.7 0.00 0.00 0.00 42 1012.2
20260502163931 54 266 3.5 3.5 0.00 0.00 0.00 37 1012.6
20260502163427 53 201 0.0 1.7 0.00 0.00 0.00 40 1012.8
20260502162925 53 266 4.3 7.0 0.00 0.00 0.00 40 1013.0
20260502162422 52 96 0.0 2.6 0.00 0.00 0.00 43 1012.8
20260502161919 52 126 0.9 2.6 0.00 0.00 0.00 43 1012.7
20260502161415 52 203 1.7 2.6 0.00 0.00 0.00 40 1012.8
20260502160913 52 257 1.7 3.5 0.00 0.00 0.00 42 1013.2
20260502160411 52 265 2.6 3.5 0.00 0.00 0.00 42 1013.0
20260502151850 50 198 3.5 5.2 0.00 0.00 0.00 44 1013.5
20260502151346 50 295 0.0 1.7 0.00 0.00 0.00 45 1013.4
20260502150843 49 229 0.9 1.7 0.00 0.00 0.00 47 1013.4
20260502150340 49 250 1.7 5.2 0.00 0.00 0.00 49 1013.4
20260502130728 44 262 0.9 0.9 0.00 0.00 0.00 59 1013.7
20260502130226 44 265 0.9 1.7 0.00 0.00 0.00 58 1013.8
20260502123712 43 252 2.6 3.5 0.00 0.00 0.00 58 1013.5
20260502123208 43 246 0.9 1.7 0.00 0.00 0.00 59 1013.6
20260502122704 44 230 0.9 0.9 0.00 0.00 0.00 58 1013.6
20260502122201 44 170 1.7 1.7 0.00 0.00 0.00 60 1013.5
20260502121700 44 180 0.0 1.7 0.00 0.00 0.00 60 1013.3
20260502121157 44 217 0.9 2.6 0.00 0.00 0.00 59 1013.3
20260502120653 44 199 0.0 0.9 0.00 0.00 0.00 60 1013.5
20260502120150 43 247 0.0 1.7 0.00 0.00 0.00 60 1013.5
20260502115647 43 251 0.9 1.7 0.00 0.00 0.00 59 1013.6
20260502115138 43 161 0.9 1.7 0.00 0.00 0.00 59 1013.6
20260502114634 43 217 0.0 0.0 0.00 0.00 0.00 59 1013.6
20260502114132 43 185 0.0 0.9 0.00 0.00 0.00 57 1013.6
20260502113629 43 193 0.9 0.9 0.00 0.00 0.00 57 1013.6
20260502113127 43 172 0.9 0.9 0.00 0.00 0.00 57 1013.4
20260502112625 43 238 0.0 0.9 0.00 0.00 0.00 57 1013.4
20260502112122 43 232 0.0 0.9 0.00 0.00 0.00 58 1013.3
20260502111619 43 193 0.0 0.9 0.00 0.00 0.00 59 1013.3
20260502111116 43 186 0.9 2.6 0.00 0.00 0.00 57 1012.9
20260502110614 43 192 0.9 0.9 0.00 0.00 0.00 57 1012.9
20260502110111 43 186 0.0 0.0 0.00 0.00 0.00 60 1012.9
20260502105609 43 185 0.0 1.7 0.00 0.00 0.00 59 1012.9
20260502105106 43 181 0.0 0.9 0.00 0.00 0.00 60 1012.8
20260502104603 43 176 1.7 1.7 0.00 0.00 0.00 59 1012.9
20260502104100 43 195 0.9 1.7 0.00 0.00 0.00 63 1012.8
20260502103558 43 196 0.0 0.0 0.00 0.00 0.00 63 1012.7
20260502103056 43 196 0.0 0.0 0.00 0.00 0.00 62 1013.1
20260502102552 43 155 1.7 1.7 0.00 0.00 0.00 62 1013.0
20260502102049 43 197 0.0 0.9 0.00 0.00 0.00 64 1012.9
20260502101547 43 195 0.0 1.7 0.00 0.00 0.00 65 1013.0
20260502101045 44 189 0.0 0.0 0.00 0.00 0.00 65 1013.1
20260502100543 44 184 0.0 1.7 0.00 0.00 0.00 65 1013.2
20260502091518 46 236 0.0 0.0 0.00 0.00 0.00 64 1013.4
20260502091015 46 206 0.0 0.0 0.00 0.00 0.00 67 1013.5
20260502090512 46 206 0.0 0.0 0.00 0.00 0.00 67 1013.6
20260502071406 48 108 0.9 0.9 0.00 0.00 0.00 71 1012.6
20260502070904 48 56 0.0 2.6 0.00 0.00 0.00 71 1012.6
20260502070402 48 129 0.0 0.9 0.00 0.00 0.00 71 1012.8
20260502065900 48 165 0.0 0.0 0.00 0.00 0.00 71 1012.8
20260502065358 48 42 0.9 1.7 0.00 0.00 0.00 70 1012.8
20260502064856 48 256 0.0 1.7 0.00 0.00 0.00 70 1012.8
20260502064354 48 239 0.0 0.0 0.00 0.00 0.00 69 1012.8
20260502063850 48 265 1.7 2.6 0.00 0.00 0.00 69 1012.9
20260502063348 48 258 0.0 1.7 0.00 0.00 0.00 69 1012.9
20260502062845 49 251 0.0 0.9 0.00 0.00 0.00 69 1013.1
20260502062342 49 275 0.0 0.9 0.00 0.00 0.00 68 1013.2
20260502061842 49 250 0.0 0.9 0.00 0.00 0.00 68 1013.0
20260502061339 49 245 0.0 0.9 0.00 0.00 0.00 68 1013.1
20260502060834 49 249 0.0 0.9 0.00 0.00 0.00 68 1013.1
20260502060329 49 226 0.0 0.0 0.00 0.00 0.00 68 1013.3
20260502055827 49 225 0.0 0.9 0.00 0.00 0.00 68 1013.4
20260502055325 49 251 0.9 0.9 0.00 0.00 0.00 68 1013.4
20260502054825 49 232 0.0 0.0 0.00 0.00 0.00 68 1013.2
20260502054323 49 269 0.9 0.9 0.00 0.00 0.00 69 1013.3
20260502053820 50 245 0.0 2.6 0.00 0.00 0.00 68 1013.4
20260502053317 50 220 0.0 0.9 0.00 0.00 0.00 68 1013.2
20260502052815 50 259 0.0 1.7 0.00 0.00 0.00 68 1013.3
20260502052312 50 228 0.0 1.7 0.00 0.00 0.00 67 1013.2
20260502051810 50 212 0.9 0.9 0.00 0.00 0.00 67 1012.9
20260502051309 50 253 0.0 0.9 0.00 0.00 0.00 67 1013.2
20260502050804 50 257 0.9 2.6 0.00 0.00 0.00 66 1013.1
20260502050301 50 315 0.9 1.7 0.00 0.00 0.00 66 1013.2
20260502045758 50 288 0.9 2.6 0.00 0.00 0.00 66 1013.0
20260502045255 50 255 1.7 1.7 0.00 0.00 0.00 66 1013.1
20260502044752 50 245 0.0 0.9 0.00 0.00 0.00 66 1013.0
20260502044248 50 261 1.7 1.7 0.00 0.00 0.00 66 1013.1
20260502043745 50 19 0.9 2.6 0.00 0.00 0.00 67 1013.0
20260502043243 50 213 0.0 0.0 0.00 0.00 0.00 67 1013.1
20260502042742 50 211 0.9 1.7 0.00 0.00 0.00 66 1013.1
20260502042240 50 159 0.9 0.9 0.00 0.00 0.00 66 1013.1
20260502041737 51 182 0.9 1.7 0.00 0.00 0.00 66 1013.1
20260502041234 51 171 0.9 0.9 0.00 0.00 0.00 66 1013.0
20260502040731 51 235 0.0 5.2 0.00 0.00 0.00 66 1013.0
20260502040228 51 316 0.0 1.7 0.00 0.00 0.00 66 1013.1
20260502035724 51 53 0.9 1.7 0.00 0.00 0.00 66 1013.2
20260502035221 51 187 0.9 0.9 0.00 0.00 0.00 67 1013.1
20260502034718 51 301 0.9 2.6 0.00 0.00 0.00 68 1013.0
20260502034217 51 207 0.0 0.0 0.00 0.00 0.00 68 1013.0
20260502033714 51 208 1.7 2.6 0.00 0.00 0.00 68 1013.0
20260502033212 51 160 0.0 0.9 0.00 0.00 0.00 69 1013.0
20260502032708 51 187 0.0 1.7 0.00 0.00 0.00 68 1013.0
20260502032204 51 285 0.0 2.6 0.00 0.00 0.00 67 1012.9
20260502031703 51 218 0.0 2.6 0.00 0.00 0.00 67 1012.9
20260502031200 52 200 0.0 0.9 0.00 0.00 0.00 68 1013.1
20260502030659 52 220 0.0 0.9 0.00 0.00 0.00 68 1013.2
20260502030156 52 221 0.0 0.9 0.00 0.00 0.00 67 1013.0
20260502025653 52 331 0.9 1.7 0.00 0.00 0.00 67 1013.2
20260502025151 52 231 0.9 1.7 0.00 0.00 0.00 67 1013.2
20260502024649 52 168 0.0 0.9 0.00 0.00 0.00 66 1013.0
20260502024147 53 198 0.0 0.9 0.00 0.00 0.00 65 1013.0
20260502023644 53 162 1.7 1.7 0.00 0.00 0.00 65 1012.9
20260502023141 53 220 0.0 0.9 0.00 0.00 0.00 64 1012.7
20260502022638 53 227 0.0 1.7 0.00 0.00 0.00 63 1012.4
20260502022135 54 265 0.0 1.7 0.00 0.00 0.00 62 1012.3
20260502021633 54 215 0.0 3.5 0.00 0.00 0.00 60 1012.3
20260502021130 55 136 0.9 7.0 0.00 0.00 0.00 59 1012.0
20260502020627 55 185 0.0 2.6 0.00 0.00 0.00 57 1011.8
20260502020124 56 122 0.0 3.5 0.00 0.00 0.00 56 1011.8
20260502015621 56 319 0.0 2.6 0.00 0.00 0.00 53 1011.6
20260502015117 57 257 0.0 2.6 0.00 0.00 0.00 51 1011.5
20260502014615 57 186 1.7 1.7 0.00 0.00 0.00 50 1011.2
20260502014112 58 166 1.7 2.6 0.00 0.00 0.00 49 1011.0
20260502013608 58 186 0.9 2.6 0.00 0.00 0.00 46 1010.8
20260502013104 58 198 0.0 0.0 0.00 0.00 0.00 45 1011.2
20260502012602 58 240 0.0 1.7 0.00 0.00 0.00 45 1011.0
20260502012100 58 227 0.0 0.0 0.00 0.00 0.00 46 1010.8
20260502011555 58 267 0.9 1.7 0.00 0.00 0.00 45 1011.0
20260502011051 58 249 1.7 1.7 0.00 0.00 0.00 45 1011.1
20260502010549 58 234 0.0 2.6 0.00 0.00 0.00 45 1011.1